START_TIME,STEP,MOV.,M15,t_acc.,M20,t_acc.
1981-08-29 15:00:44.510 ,3,0,0.,24.0,0.,24.0
1981-08-29 15:01:08.510 ,4,1,0.,24.0,0.,24.0
1981-08-29 15:01:32.510 ,4,0,0.,24.0,0.,24.0
1981-08-29 15:01:56.510 ,5,1,0.,24.0,0.,24.0
1981-08-29 15:02:20.510 ,5,0,0.,24.0,0.,24.0
1981-08-29 15:02:44.510 ,6,1,0.,24.0,0.,24.0
1981-08-29 15:03:08.510 ,6,0,0.,24.0,0.,24.0
1981-08-29 15:03:32.510 ,7,1,0.,24.0,0.,24.0
1981-08-29 15:03:56.510 ,7,0,0.,24.0,0.,24.0
1981-08-29 15:04:20.510 ,7,1,1.,24.0,0.,24.0
1981-08-29 15:04:44.510 ,6,1,0.,24.0,0.,24.0
1981-08-29 15:05:08.510 ,5,1,0.,24.0,0.,24.0
1981-08-29 15:05:32.510 ,4,1,0.,24.0,0.,24.0
1981-08-29 15:05:56.510 ,3,1,0.,24.0,0.,24.0
1981-08-29 15:06:20.510 ,2,1,0.,24.0,0.,24.0
1981-08-29 15:06:44.510 ,1,1,0.,24.0,0.,24.0
1981-08-29 15:07:08.510 ,0,1,0.,24.0,0.,24.0
1981-08-29 15:07:32.510 ,0,1,0.,24.0,0.,24.0
1981-08-29 15:07:56.510 ,1,1,0.,24.0,0.,24.0
1981-08-29 15:08:20.510 ,2,1,0.,24.0,0.,24.0
1981-08-29 15:08:44.510 ,3,1,0.,24.0,0.,24.0
1981-08-29 15:09:08.510 ,4,1,0.,24.0,0.,24.0
1981-08-29 15:09:32.510 ,5,1,0.,24.0,0.,24.0
1981-08-29 15:09:56.510 ,6,1,0.,24.0,0.,24.0
1981-08-29 15:10:20.510 ,7,1,0.,24.0,0.,24.0
1981-08-29 15:10:44.510 ,7,1,0.,24.0,0.,24.0
1981-08-29 15:11:08.510 ,7,0,0.,24.0,0.,24.0
1981-08-29 15:11:32.510 ,6,1,0.,24.0,0.,24.0
1981-08-29 15:11:56.510 ,6,0,0.,24.0,0.,24.0
1981-08-29 15:12:20.510 ,5,1,0.,24.0,0.,24.0
1981-08-29 15:12:44.510 ,5,0,0.,24.0,0.,24.0
1981-08-29 15:13:08.510 ,4,1,0.,24.0,0.,24.0
1981-08-29 15:13:32.510 ,4,0,0.,24.0,0.,24.0
1981-08-29 15:13:56.510 ,3,1,0.,24.0,0.,24.0
1981-08-29 15:14:20.510 ,3,0,0.,24.0,0.,24.0
1981-08-29 15:14:44.510 ,2,1,0.,24.0,0.,24.0
1981-08-29 15:15:08.510 ,2,0,0.,24.0,0.,24.0
1981-08-29 15:15:32.510 ,1,1,0.,24.0,0.,24.0
1981-08-29 15:15:56.510 ,1,0,0.,24.0,0.,24.0
1981-08-29 15:16:20.510 ,0,1,0.,24.0,0.,24.0
1981-08-29 15:16:44.510 ,0,0,0.,24.0,0.,24.0
1981-08-29 15:17:08.510 ,0,1,0.,24.0,0.,24.0
1981-08-29 15:17:32.510 ,0,0,0.,24.0,0.,24.0
1981-08-29 15:17:56.510 ,1,1,0.,24.0,0.,24.0
1981-08-29 15:18:20.510 ,1,0,0.,24.0,0.,24.0
1981-08-29 15:18:44.510 ,2,1,0.,24.0,0.,24.0
1981-08-29 15:19:08.510 ,2,0,0.,24.0,0.,24.0
1981-08-29 15:19:32.510 ,3,1,0.,24.0,0.,24.0
1981-08-29 15:19:56.510 ,3,0,0.,24.0,0.,24.0
1981-08-29 15:21:08.510 ,0,0,0.,24.0,0.,24.0
1981-08-29 15:21:32.510 ,0,0,0.,24.0,0.,24.0
1981-08-29 15:21:32.510 ,0,0,0.,24.0,0.,24.0
1981-08-29 15:21:56.510 ,6,1,0.,24.0,0.,24.0
1981-08-29 15:22:20.510 ,6,0,0.,24.0,0.,24.0
1981-08-29 15:22:44.510 ,7,1,0.,24.0,0.,24.0
1981-08-29 15:23:08.510 ,7,0,0.,24.0,0.,24.0
1981-08-29 15:23:32.510 ,7,1,0.,24.0,0.,24.0
1981-08-29 15:23:56.510 ,6,1,0.,24.0,0.,24.0
1981-08-29 15:24:20.510 ,5,1,0.,24.0,0.,24.0
1981-08-29 15:24:44.510 ,4,1,0.,24.0,0.,24.0
1981-08-29 15:25:08.510 ,3,1,0.,24.0,0.,24.0
1981-08-29 15:25:32.510 ,2,1,0.,24.0,0.,24.0
1981-08-29 15:25:56.510 ,1,1,0.,24.0,0.,24.0
1981-08-29 15:26:20.510 ,0,1,0.,24.0,0.,24.0
1981-08-29 15:26:44.510 ,0,1,0.,24.0,0.,24.0
1981-08-29 15:27:08.510 ,1,1,0.,24.0,0.,24.0
1981-08-29 15:27:32.510 ,2,1,0.,24.0,0.,24.0
1981-08-29 15:27:56.510 ,3,1,0.,24.0,0.,24.0
1981-08-29 15:28:20.510 ,4,1,0.,24.0,0.,24.0
1981-08-29 15:28:44.510 ,5,1,0.,24.0,0.,24.0
1981-08-29 15:29:08.510 ,6,1,0.,24.0,0.,24.0
1981-08-29 15:29:32.510 ,7,1,0.,24.0,0.,24.0
1981-08-29 15:29:56.510 ,7,1,0.,24.0,0.,24.0
1981-08-29 15:30:20.510 ,7,0,0.,24.0,0.,24.0
1981-08-29 15:30:44.510 ,6,1,0.,24.0,0.,24.0
1981-08-29 15:31:08.510 ,6,0,0.,24.0,0.,24.0
1981-08-29 15:31:32.510 ,5,1,0.,24.0,0.,24.0
1981-08-29 15:31:56.510 ,5,0,0.,24.0,0.,24.0
1981-08-29 15:32:20.510 ,4,1,0.,24.0,0.,24.0
1981-08-29 15:32:44.510 ,4,0,0.,24.0,0.,24.0
1981-08-29 15:33:08.510 ,3,1,0.,24.0,0.,24.0
1981-08-29 15:33:32.510 ,3,0,0.,24.0,0.,24.0
1981-08-29 15:33:56.510 ,2,1,0.,24.0,0.,24.0
1981-08-29 15:34:20.510 ,2,0,0.,24.0,0.,24.0
1981-08-29 15:34:44.510 ,1,1,0.,24.0,0.,24.0
1981-08-29 15:35:08.510 ,1,0,0.,24.0,0.,24.0
1981-08-29 15:35:32.510 ,0,1,0.,24.0,0.,24.0
1981-08-29 15:35:56.510 ,0,0,0.,24.0,0.,24.0
1981-08-29 15:36:20.510 ,0,1,0.,24.0,0.,24.0
1981-08-29 15:36:44.510 ,0,0,0.,24.0,0.,24.0
1981-08-29 15:37:08.510 ,1,1,0.,24.0,0.,24.0
1981-08-29 15:37:32.510 ,1,0,0.,24.0,0.,24.0
1981-08-29 15:37:56.510 ,2,1,0.,24.0,0.,24.0
1981-08-29 15:38:20.510 ,2,0,0.,24.0,0.,24.0
1981-08-29 15:38:44.510 ,3,1,0.,24.0,0.,24.0
1981-08-29 15:39:08.510 ,3,0,0.,24.0,0.,24.0
1981-08-29 15:39:32.510 ,4,1,0.,24.0,0.,24.0
1981-08-29 15:39:56.510 ,4,0,0.,24.0,0.,24.0
1981-08-29 15:40:20.510 ,5,1,0.,24.0,0.,24.0
1981-08-29 15:40:44.510 ,5,0,0.,24.0,0.,24.0
1981-08-29 15:41:08.510 ,6,1,0.,24.0,0.,24.0
1981-08-29 15:41:32.510 ,6,0,0.,24.0,0.,24.0
1981-08-29 15:41:56.510 ,7,1,0.,24.0,0.,24.0
1981-08-29 15:42:20.510 ,7,0,0.,24.0,0.,24.0
1981-08-29 15:42:44.510 ,7,1,0.,24.0,0.,24.0
1981-08-29 15:43:08.510 ,0,0,0.,24.0,0.,24.0
1981-08-29 15:46:59.510 ,0,0,0.,24.0,0.,24.0
1981-08-29 15:47:08.510 ,3,1,0.,24.0,0.,24.0
1981-08-29 15:47:32.510 ,4,1,0.,24.0,0.,24.0
1981-08-29 15:47:56.510 ,5,1,0.,24.0,0.,24.0
1981-08-29 15:48:20.510 ,6,1,0.,24.0,0.,24.0
1981-08-29 15:48:44.510 ,7,1,0.,24.0,0.,24.0
1981-08-29 15:49:08.510 ,7,1,0.,24.0,0.,24.0
1981-08-29 15:49:32.510 ,7,0,0.,24.0,0.,24.0
1981-08-29 15:49:56.510 ,6,1,0.,24.0,0.,24.0
1981-08-29 15:50:20.510 ,6,0,0.,24.0,0.,24.0
1981-08-29 15:50:44.510 ,5,1,0.,24.0,0.,24.0
1981-08-29 15:51:08.510 ,5,0,0.,24.0,0.,24.0
1981-08-29 15:51:32.510 ,4,1,0.,24.0,0.,24.0
1981-08-29 15:51:56.510 ,4,0,0.,24.0,0.,24.0
1981-08-29 15:52:20.510 ,3,1,0.,24.0,0.,24.0
1981-08-29 15:52:44.510 ,3,0,0.,24.0,0.,24.0
1981-08-29 15:53:08.510 ,2,1,0.,24.0,0.,24.0
1981-08-29 15:53:32.510 ,2,0,0.,24.0,0.,24.0
1981-08-29 15:53:56.510 ,1,1,0.,24.0,0.,24.0
1981-08-29 15:54:20.510 ,1,0,0.,24.0,0.,24.0
1981-08-29 15:54:44.510 ,0,1,0.,24.0,0.,24.0
1981-08-29 15:55:08.510 ,0,0,0.,24.0,0.,24.0
1981-08-29 15:55:32.510 ,0,1,0.,24.0,0.,24.0
1981-08-29 15:55:56.510 ,0,0,0.,24.0,0.,24.0
1981-08-29 15:56:20.510 ,1,1,0.,24.0,0.,24.0
1981-08-29 15:56:44.510 ,1,0,0.,24.0,0.,24.0
1981-08-29 15:57:08.510 ,2,1,0.,24.0,0.,24.0
1981-08-29 15:57:32.510 ,2,0,0.,24.0,0.,24.0
1981-08-29 15:57:56.510 ,3,1,0.,24.0,0.,24.0
1981-08-29 15:58:20.510 ,3,0,0.,24.0,0.,24.0
1981-08-29 15:58:44.510 ,4,1,0.,24.0,0.,24.0
1981-08-29 15:59:08.510 ,4,0,0.,24.0,0.,24.0
1981-08-29 15:59:32.510 ,5,1,0.,24.0,0.,24.0
1981-08-29 15:59:56.510 ,5,0,0.,24.0,0.,24.0
1981-08-29 16:00:20.510 ,6,1,0.,24.0,0.,24.0
1981-08-29 16:00:44.510 ,6,0,0.,24.0,0.,24.0
1981-08-29 16:01:08.510 ,7,1,0.,24.0,0.,24.0
1981-08-29 16:01:32.510 ,7,0,0.,24.0,0.,24.0
1981-08-29 16:01:56.510 ,7,1,0.,24.0,0.,24.0
1981-08-29 16:02:20.510 ,6,1,0.,24.0,0.,24.0
1981-08-29 16:02:44.510 ,5,1,0.,24.0,0.,24.0
1981-08-29 16:03:08.510 ,4,1,0.,24.0,0.,24.0
1981-08-29 16:03:32.510 ,3,1,0.,24.0,0.,24.0
1981-08-29 16:03:56.510 ,2,1,0.,24.0,0.,24.0
1981-08-29 16:04:20.510 ,1,1,0.,24.0,0.,24.0
1981-08-29 16:04:44.510 ,0,1,0.,24.0,0.,24.0
1981-08-29 16:05:08.510 ,0,1,0.,24.0,0.,24.0
1981-08-29 16:05:32.510 ,1,1,0.,24.0,0.,24.0
1981-08-29 16:05:56.510 ,2,1,0.,24.0,0.,24.0
1981-08-29 16:06:20.510 ,3,1,0.,24.0,0.,24.0
1981-08-29 16:06:44.510 ,4,1,0.,24.0,0.,24.0
1981-08-29 16:07:08.510 ,5,1,0.,24.0,0.,24.0
1981-08-29 16:07:32.510 ,6,1,0.,24.0,0.,24.0
1981-08-29 16:07:56.510 ,7,1,0.,24.0,0.,24.0
1981-08-29 16:08:20.510 ,7,1,0.,24.0,0.,24.0
1981-08-29 16:08:44.510 ,7,0,0.,24.0,0.,24.0
1981-08-29 16:09:08.510 ,6,1,0.,24.0,0.,24.0
1981-08-29 16:09:32.510 ,6,0,0.,24.0,0.,24.0
1981-08-29 16:09:56.510 ,5,1,0.,24.0,0.,24.0
1981-08-29 16:10:20.510 ,5,0,0.,24.0,0.,24.0
1981-08-29 16:10:44.510 ,4,1,0.,24.0,0.,24.0
1981-08-29 16:11:08.510 ,4,0,0.,24.0,0.,24.0
1981-08-29 16:11:32.510 ,3,1,0.,24.0,0.,24.0
1981-08-29 16:11:56.510 ,3,0,0.,24.0,0.,24.0
1981-08-29 16:12:20.510 ,2,1,0.,24.0,0.,24.0
1981-08-29 16:12:44.510 ,2,0,0.,24.0,0.,24.0
1981-08-29 16:13:08.510 ,1,1,0.,24.0,0.,24.0
1981-08-29 16:13:32.510 ,1,0,0.,24.0,0.,24.0
1981-08-29 16:13:56.510 ,0,1,0.,24.0,0.,24.0
1981-08-29 16:14:20.510 ,0,0,0.,24.0,0.,24.0
1981-08-29 16:14:44.510 ,0,1,0.,24.0,0.,24.0
1981-08-29 16:15:08.510 ,0,0,0.,24.0,0.,24.0
1981-08-29 16:15:32.510 ,1,1,0.,24.0,0.,24.0
1981-08-29 16:15:56.510 ,1,0,0.,24.0,0.,24.0
1981-08-29 16:16:20.510 ,2,1,0.,24.0,0.,24.0
1981-08-29 16:16:44.510 ,2,0,0.,24.0,0.,24.0
1981-08-29 16:17:08.510 ,3,1,0.,24.0,0.,24.0
1981-08-29 16:17:32.510 ,3,0,0.,24.0,0.,24.0
1981-08-29 16:17:56.510 ,4,1,0.,24.0,0.,24.0
1981-08-29 16:18:20.510 ,4,0,0.,24.0,0.,24.0
1981-08-29 16:18:44.510 ,5,1,0.,24.0,0.,24.0
1981-08-29 16:19:08.510 ,5,0,0.,24.0,0.,24.0
1981-08-29 16:19:32.510 ,6,1,0.,24.0,0.,24.0
1981-08-29 16:19:56.510 ,6,0,0.,24.0,0.,24.0
1981-08-29 16:20:20.510 ,7,1,0.,24.0,0.,24.0
1981-08-29 16:20:44.510 ,7,0,0.,24.0,0.,24.0
1981-08-29 16:21:08.510 ,7,1,0.,24.0,0.,24.0
1981-08-29 16:21:32.510 ,6,1,0.,24.0,0.,24.0
1981-08-29 16:21:56.510 ,5,1,0.,24.0,0.,24.0
1981-08-29 16:22:20.510 ,4,1,0.,24.0,0.,24.0
1981-08-29 16:22:44.510 ,3,1,0.,24.0,0.,24.0
1981-08-29 16:23:08.510 ,2,1,0.,24.0,0.,24.0
1981-08-29 16:23:32.510 ,1,1,0.,24.0,0.,24.0
1981-08-29 16:23:56.510 ,0,1,0.,24.0,0.,24.0
1981-08-29 16:24:20.510 ,0,1,0.,24.0,0.,24.0
1981-08-29 16:24:44.510 ,1,1,0.,24.0,0.,24.0
1981-08-29 16:25:08.510 ,2,1,0.,24.0,0.,24.0
1981-08-29 16:25:32.510 ,3,1,0.,24.0,0.,24.0
1981-08-29 16:25:56.510 ,4,1,0.,24.0,0.,24.0
1981-08-29 16:26:20.510 ,5,1,0.,24.0,0.,24.0
1981-08-29 16:26:44.510 ,6,1,0.,24.0,0.,24.0
1981-08-29 16:27:08.510 ,7,1,0.,24.0,0.,24.0
1981-08-29 16:27:32.510 ,7,1,0.,24.0,0.,24.0
1981-08-29 16:27:56.510 ,7,0,0.,24.0,0.,24.0
1981-08-29 16:28:20.510 ,6,1,0.,24.0,0.,24.0
1981-08-29 16:28:44.510 ,6,0,0.,24.0,0.,24.0
1981-08-29 16:29:08.510 ,5,1,0.,24.0,0.,24.0
1981-08-29 16:29:32.510 ,5,0,0.,24.0,0.,24.0
1981-08-29 16:29:56.510 ,4,1,0.,24.0,0.,24.0
1981-08-29 16:30:20.510 ,4,0,0.,24.0,0.,24.0
1981-08-29 16:30:44.510 ,3,1,0.,24.0,0.,24.0
1981-08-29 16:31:08.510 ,3,0,0.,24.0,0.,24.0
1981-08-29 16:31:32.510 ,2,1,0.,24.0,0.,24.0
1981-08-29 16:31:56.510 ,2,0,0.,24.0,0.,24.0
1981-08-29 16:32:20.510 ,1,1,0.,24.0,0.,24.0
1981-08-29 16:32:44.510 ,1,0,0.,24.0,0.,24.0
1981-08-29 16:33:08.510 ,0,1,0.,24.0,0.,24.0
1981-08-29 16:33:32.510 ,0,0,0.,24.0,0.,24.0
1981-08-29 16:33:56.510 ,0,1,0.,24.0,0.,24.0
1981-08-29 16:34:20.510 ,0,0,0.,24.0,0.,24.0
1981-08-29 16:34:44.510 ,1,1,0.,24.0,0.,24.0
1981-08-29 16:35:08.510 ,1,0,0.,24.0,0.,24.0
1981-08-29 16:35:32.510 ,2,1,0.,24.0,0.,24.0
1981-08-29 16:35:56.510 ,2,0,0.,24.0,0.,24.0
1981-08-29 16:36:20.510 ,3,1,0.,24.0,0.,24.0
1981-08-29 16:36:44.510 ,3,0,0.,24.0,0.,24.0
1981-08-29 16:37:08.500 ,4,1,0.,24.0,0.,24.0
1981-08-29 16:37:32.500 ,4,0,0.,24.0,0.,24.0
1981-08-29 16:37:56.500 ,5,1,0.,24.0,0.,24.0
1981-08-29 16:38:20.500 ,5,0,0.,24.0,0.,24.0
1981-08-29 16:38:44.500 ,6,1,0.,24.0,0.,24.0
1981-08-29 16:39:08.500 ,6,0,0.,24.0,0.,24.0
1981-08-29 16:39:32.500 ,7,1,0.,24.0,0.,24.0
1981-08-29 16:39:56.500 ,7,0,0.,24.0,0.,24.0
1981-08-29 16:40:20.500 ,7,1,0.,24.0,0.,24.0
1981-08-29 16:40:44.500 ,6,1,0.,24.0,0.,24.0
1981-08-29 16:41:08.500 ,5,1,0.,24.0,0.,24.0
1981-08-29 16:41:32.500 ,4,1,0.,24.0,0.,24.0
1981-08-29 16:41:56.500 ,3,1,0.,24.0,0.,24.0
1981-08-29 16:42:20.500 ,0,0,0.,24.0,0.,24.0
1981-08-29 16:53:43.900 ,0,0,0.,24.0,0.,24.0
1981-08-29 16:53:56.500 ,3,1,0.,24.0,0.,24.0
1981-08-29 16:54:20.500 ,3,0,0.,24.0,0.,24.0
1981-08-29 16:54:44.500 ,2,1,0.,24.0,0.,24.0
1981-08-29 16:55:08.500 ,2,0,0.,24.0,0.,24.0
1981-08-29 16:55:32.500 ,1,1,0.,24.0,0.,24.0
1981-08-29 16:55:56.500 ,1,0,0.,24.0,0.,24.0
1981-08-29 16:56:20.500 ,0,1,0.,24.0,0.,24.0
1981-08-29 16:56:44.500 ,0,0,0.,24.0,0.,24.0
1981-08-29 16:57:08.500 ,0,1,0.,24.0,0.,24.0
1981-08-29 16:57:32.500 ,0,0,0.,24.0,0.,24.0
1981-08-29 16:57:56.500 ,1,1,0.,24.0,0.,24.0
1981-08-29 16:58:20.500 ,1,0,0.,24.0,0.,24.0
1981-08-29 16:58:44.500 ,2,1,0.,24.0,0.,24.0
1981-08-29 16:59:08.500 ,2,0,0.,24.0,0.,24.0
1981-08-29 16:59:32.500 ,3,1,0.,24.0,0.,24.0
1981-08-29 16:59:56.500 ,4,1,0.,24.0,0.,24.0
1981-08-29 17:00:20.500 ,5,1,0.,24.0,0.,24.0
1981-08-29 17:00:44.500 ,6,1,0.,24.0,0.,24.0
1981-08-29 17:01:08.500 ,7,1,0.,24.0,0.,24.0
1981-08-29 17:01:32.500 ,7,1,0.,24.0,0.,24.0
1981-08-29 17:01:56.500 ,6,1,0.,24.0,0.,24.0
1981-08-29 17:02:20.500 ,5,1,0.,24.0,0.,24.0
1981-08-29 17:02:44.500 ,4,1,0.,24.0,0.,24.0
1981-08-29 17:03:08.500 ,3,1,0.,24.0,0.,24.0
1981-08-29 17:03:32.500 ,2,1,0.,24.0,0.,24.0
1981-08-29 17:03:56.500 ,1,1,0.,24.0,0.,24.0
1981-08-29 17:04:20.500 ,0,1,0.,24.0,0.,24.0
1981-08-29 17:04:44.500 ,0,1,0.,24.0,0.,24.0
1981-08-29 17:05:08.500 ,1,1,0.,24.0,0.,24.0
1981-08-29 17:05:32.500 ,2,1,0.,24.0,0.,24.0
1981-08-29 17:05:56.500 ,3,1,0.,24.0,0.,24.0
1981-08-29 17:06:20.500 ,3,0,0.,24.0,0.,24.0
1981-08-29 17:06:44.500 ,4,1,0.,24.0,0.,24.0
1981-08-29 17:07:08.500 ,4,0,0.,24.0,0.,24.0
1981-08-29 17:07:32.500 ,5,1,0.,24.0,0.,24.0
1981-08-29 17:07:56.500 ,5,0,0.,24.0,0.,24.0
1981-08-29 17:08:20.500 ,6,1,0.,24.0,0.,24.0
1981-08-29 17:08:44.500 ,6,0,0.,24.0,0.,24.0
1981-08-29 17:09:08.500 ,7,1,0.,24.0,0.,24.0
1981-08-29 17:09:32.500 ,7,0,0.,24.0,0.,24.0
1981-08-29 17:09:56.500 ,7,1,0.,24.0,0.,24.0
1981-08-29 17:10:20.500 ,7,0,0.,24.0,0.,24.0
1981-08-29 17:10:44.500 ,6,1,0.,24.0,0.,24.0
1981-08-29 17:11:08.500 ,6,0,0.,24.0,0.,24.0
1981-08-29 17:11:32.500 ,5,1,0.,24.0,0.,24.0
1981-08-29 17:11:56.500 ,5,0,0.,24.0,0.,24.0
1981-08-29 17:12:20.500 ,4,1,0.,24.0,0.,24.0
1981-08-29 17:12:44.500 ,4,0,0.,24.0,0.,24.0
1981-08-29 17:13:08.500 ,3,1,0.,24.0,0.,24.0
1981-08-29 17:13:32.500 ,3,0,0.,24.0,0.,24.0
1981-08-29 17:13:56.500 ,2,1,0.,24.0,0.,24.0
1981-08-29 17:14:20.500 ,2,0,0.,24.0,0.,24.0
1981-08-29 17:14:44.500 ,1,1,0.,24.0,0.,24.0
1981-08-29 17:15:08.500 ,1,0,0.,24.0,0.,24.0
1981-08-29 17:15:32.500 ,0,1,0.,24.0,0.,24.0
1981-08-29 17:15:56.500 ,0,0,0.,24.0,0.,24.0
1981-08-29 17:16:20.500 ,0,1,0.,24.0,0.,24.0
1981-08-29 17:16:44.500 ,0,0,,0,,0
1981-08-29 17:16:56.500 ,0,0,0.,24.0,0.,24.0
1981-08-29 17:17:08.500 ,1,1,0.,24.0,0.,24.0
1981-08-29 17:17:32.500 ,1,0,0.,24.0,0.,24.0
1981-08-29 17:17:56.500 ,2,1,0.,24.0,0.,24.0
1981-08-29 17:18:20.500 ,2,0,0.,24.0,0.,24.0
1981-08-29 17:18:44.500 ,3,1,0.,24.0,0.,24.0
1981-08-29 17:19:08.500 ,4,1,0.,24.0,0.,24.0
1981-08-29 17:19:32.500 ,5,1,0.,24.0,0.,24.0
1981-08-29 17:19:56.500 ,6,1,0.,24.0,0.,24.0
1981-08-29 17:20:20.500 ,7,1,0.,24.0,0.,24.0
1981-08-29 17:20:44.500 ,7,1,0.,24.0,0.,24.0
1981-08-29 17:21:08.500 ,6,1,0.,24.0,0.,24.0
1981-08-29 17:21:32.500 ,5,1,0.,24.0,0.,24.0
1981-08-29 17:21:56.500 ,4,1,0.,24.0,0.,24.0
1981-08-29 17:22:20.500 ,3,1,0.,24.0,0.,24.0
1981-08-29 17:22:44.500 ,2,1,0.,24.0,0.,24.0
1981-08-29 17:23:08.500 ,1,1,0.,24.0,0.,24.0
1981-08-29 17:23:32.500 ,0,1,0.,24.0,0.,24.0
1981-08-29 17:23:56.500 ,0,1,0.,24.0,0.,24.0
1981-08-29 17:24:20.500 ,1,1,0.,24.0,0.,24.0
1981-08-29 17:24:44.500 ,2,1,0.,24.0,0.,24.0
1981-08-29 17:25:08.500 ,3,1,0.,24.0,0.,24.0
1981-08-29 17:25:32.500 ,3,0,0.,24.0,0.,24.0
1981-08-29 17:25:56.500 ,4,1,0.,24.0,0.,24.0
1981-08-29 17:26:20.500 ,4,0,0.,24.0,0.,24.0
1981-08-29 17:26:44.500 ,5,1,0.,24.0,0.,24.0
1981-08-29 17:27:08.500 ,5,0,0.,24.0,0.,24.0
1981-08-29 17:27:32.500 ,6,1,0.,24.0,0.,24.0
1981-08-29 17:27:56.500 ,6,0,0.,24.0,0.,24.0
1981-08-29 17:28:20.500 ,7,1,0.,24.0,0.,24.0
1981-08-29 17:28:44.500 ,7,0,0.,24.0,0.,24.0
1981-08-29 17:29:08.500 ,7,1,0.,24.0,0.,24.0
1981-08-29 17:29:32.500 ,7,0,0.,24.0,0.,24.0
1981-08-29 17:29:56.500 ,6,1,0.,24.0,0.,24.0
1981-08-29 17:30:20.500 ,6,0,0.,24.0,0.,24.0
1981-08-29 17:30:44.500 ,5,1,0.,24.0,0.,24.0
1981-08-29 17:31:08.500 ,5,0,0.,24.0,0.,24.0
1981-08-29 17:31:32.500 ,4,1,0.,24.0,0.,24.0
1981-08-29 17:31:56.500 ,4,0,0.,24.0,0.,24.0
1981-08-29 17:32:20.500 ,3,1,0.,24.0,0.,24.0
1981-08-29 17:32:44.500 ,3,0,0.,24.0,0.,24.0
1981-08-29 17:33:08.500 ,2,1,0.,24.0,0.,24.0
1981-08-29 17:33:32.500 ,2,0,0.,24.0,0.,24.0
1981-08-29 17:33:56.500 ,1,1,0.,24.0,0.,24.0
1981-08-29 17:34:20.500 ,1,0,0.,24.0,0.,24.0
1981-08-29 17:34:44.500 ,0,1,0.,24.0,0.,24.0
1981-08-29 17:35:08.500 ,0,0,0.,24.0,0.,24.0
1981-08-29 17:35:32.500 ,0,1,0.,24.0,0.,24.0
1981-08-29 17:35:56.500 ,0,0,0.,24.0,0.,24.0
1981-08-29 17:36:20.500 ,1,1,0.,24.0,0.,24.0
1981-08-29 17:36:44.500 ,1,0,0.,24.0,0.,24.0
1981-08-29 17:37:08.500 ,2,1,0.,24.0,0.,24.0
1981-08-29 17:37:32.500 ,2,0,0.,24.0,0.,24.0
1981-08-29 17:37:56.500 ,3,1,0.,24.0,0.,24.0
1981-08-29 17:38:20.500 ,4,1,0.,24.0,0.,24.0
1981-08-29 17:38:44.500 ,5,1,0.,24.0,0.,24.0
1981-08-29 17:39:08.500 ,0,0,0.,24.0,0.,24.0
1981-08-29 17:40:00.100 ,0,0,0.,24.0,0.,24.0
1981-08-29 17:40:20.500 ,6,1,0.,24.0,0.,24.0
1981-08-29 17:40:44.500 ,5,1,0.,24.0,0.,24.0
1981-08-29 17:41:08.500 ,4,1,0.,24.0,0.,24.0
1981-08-29 17:41:32.500 ,3,1,0.,24.0,0.,24.0
1981-08-29 17:41:56.500 ,2,1,0.,24.0,0.,24.0
1981-08-29 17:42:20.500 ,1,1,0.,24.0,0.,24.0
1981-08-29 17:42:44.500 ,0,1,0.,24.0,0.,24.0
1981-08-29 17:43:08.500 ,0,1,0.,24.0,0.,24.0
1981-08-29 17:43:32.500 ,1,1,0.,24.0,0.,24.0
1981-08-29 17:43:56.500 ,2,1,0.,24.0,0.,24.0
1981-08-29 17:44:20.500 ,3,1,0.,24.0,0.,24.0
1981-08-29 17:44:44.500 ,3,0,0.,24.0,0.,24.0
1981-08-29 17:45:08.500 ,4,1,0.,24.0,0.,24.0
1981-08-29 17:45:32.500 ,4,0,0.,24.0,0.,24.0
1981-08-29 17:45:56.500 ,5,1,0.,24.0,0.,24.0
1981-08-29 17:46:20.500 ,5,0,0.,24.0,0.,24.0
1981-08-29 17:46:44.500 ,6,1,0.,24.0,0.,24.0
1981-08-29 17:47:08.500 ,6,0,0.,24.0,0.,24.0
1981-08-29 17:47:32.500 ,7,1,0.,24.0,0.,24.0
1981-08-29 17:47:56.500 ,7,0,0.,24.0,0.,24.0
1981-08-29 17:48:20.500 ,7,1,0.,24.0,0.,24.0
1981-08-29 17:48:44.500 ,7,0,0.,24.0,0.,24.0
1981-08-29 17:49:08.500 ,6,1,0.,24.0,0.,24.0
1981-08-29 17:49:32.500 ,6,0,0.,24.0,0.,24.0
1981-08-29 17:49:56.500 ,5,1,0.,24.0,0.,24.0
1981-08-29 17:50:20.500 ,5,0,0.,24.0,0.,24.0
1981-08-29 17:50:44.500 ,4,1,0.,24.0,0.,24.0
1981-08-29 17:51:08.500 ,4,0,0.,24.0,0.,24.0
1981-08-29 17:51:32.500 ,3,1,0.,24.0,0.,24.0
1981-08-29 17:51:56.500 ,3,0,0.,24.0,0.,24.0
1981-08-29 17:52:20.500 ,2,1,0.,24.0,0.,24.0
1981-08-29 17:52:44.500 ,2,0,0.,24.0,0.,24.0
1981-08-29 17:53:08.500 ,1,1,0.,24.0,0.,24.0
1981-08-29 17:53:32.500 ,1,0,0.,24.0,0.,24.0
1981-08-29 17:53:56.500 ,0,1,0.,24.0,0.,24.0
1981-08-29 17:54:20.500 ,0,0,0.,24.0,0.,24.0
1981-08-29 17:54:44.500 ,0,1,0.,24.0,0.,24.0
1981-08-29 17:55:08.500 ,0,0,0.,24.0,0.,24.0
1981-08-29 17:55:32.500 ,1,1,0.,24.0,0.,24.0
1981-08-29 17:55:56.500 ,1,0,0.,24.0,0.,24.0
1981-08-29 17:56:20.500 ,2,1,0.,24.0,0.,24.0
1981-08-29 17:56:44.500 ,2,0,0.,24.0,0.,24.0
1981-08-29 17:57:08.500 ,3,1,0.,24.0,0.,24.0
1981-08-29 17:57:32.500 ,4,1,0.,24.0,0.,24.0
1981-08-29 17:57:56.500 ,5,1,0.,24.0,0.,24.0
1981-08-29 17:58:20.500 ,6,1,0.,24.0,0.,24.0
1981-08-29 17:58:44.500 ,7,1,0.,24.0,0.,24.0
1981-08-29 17:59:08.500 ,7,1,0.,24.0,0.,24.0
1981-08-29 17:59:32.500 ,6,1,0.,24.0,0.,24.0
1981-08-29 17:59:56.500 ,5,1,0.,24.0,0.,24.0
1981-08-29 18:00:20.500 ,4,1,0.,24.0,0.,24.0
